Location: Borotín
(49.5055°N, 14.6142°E)
Time: 17:00:58
(UTC+00:00)

COSMOS 2455 - Pass Details

Date: 27 May 2022
Orbit: 901 x 908 km, 67.1° (Epoch: 26 June)

Event Time Altitude Azimuth Distance (km) Brightness Sun altitude
Exits shadow 02:08:44 - 228° (SW) 2,662 4.6 -7.6°
Reaches altitude 10° 02:08:56 10° 228° (SW) 2,587 4.5 -7.6°
Maximum altitude 02:14:54 63° 310° (NW) 1,008 3.1 -6.9°
Drops below altitude 10° 02:20:54 10° 32° (NNE) 2,603 6.8 -6.2°
Sets 02:23:27 0° 35° (NE) 3,548 8.1 -5.9°
